Location: Newark
(7.0858°N, 171.3717°E)
Time: 16:52:06
(UTC+00:00)

Altair - Pass Details

Date: 02 December 2020
Orbit: 1501 x 1682 km, 47.2° (Epoch: 20 January)

Event Time Altitude Azimuth Distance (km) Brightness Sun altitude
Rises 06:57:36 0° 247° (WSW) 4,845 12.5 -10.4°
Reaches altitude 10° 07:01:20 10° 258° (WSW) 3,830 11.1 -11.3°
Maximum altitude 07:09:22 29° 314° (NW) 2,562 8.9 -13.1°
Drops below altitude 10° 07:17:13 10° 12° (NNE) 3,707 9.2 -14.9°
Enters shadow 07:20:12 - 21° (NNE) 4,497 9.6 -15.6°
